Date String (YYYY-MM-DD hh:mm:ss) UTC,Instrument flags,Ambient pressure (hPa),Sample flow (lpm),Bypass flow (lpm),Sample temperature (°C),Ambient temperature (°C),ASC tube jacket temperature (°C),LED temperature (°C),Box temperature (°C),Sample RH (%),Span deviation,Mass concentration (μg/m³),Mass concentration (μg/m³),Mass concentration (μg/m³)
DateTimeUTC,F1_M11,P_M11,Q1_M11,Q2_M11,T1_M11,T2_M11,T3_M11,T4_M11,T5_M11,U1_M11,ZSPAN_M11,X0_M11,X2_M11,X1_M11
2021-10-19 14:00:00,,0819.3,4.99,0.00,27.9,26.9,00.0,37.0,29.7,12.8,0000.0,0017.00,0004.54,0002.80
2021-10-19 14:01:00,,0819.3,5.01,0.00,27.9,27.0,00.0,37.0,29.7,12.8,0000.0,0016.82,0004.53,0002.78
2021-10-19 14:02:00,,0819.2,5.00,0.00,27.9,27.0,00.0,37.0,29.7,12.6,0000.0,0017.36,0004.57,0002.77
2021-10-19 14:03:00,,0819.3,5.01,0.00,27.9,27.0,00.0,37.0,29.7,12.6,0000.0,0017.85,0004.58,0002.78
2021-10-19 14:04:00,,0819.4,5.00,0.00,27.9,27.0,00.0,37.0,29.7,12.6,0000.0,0017.76,0004.51,0002.75
2021-10-19 14:05:00,,0819.4,5.00,0.00,27.9,27.0,00.0,37.0,29.7,12.7,0000.0,0018.34,0004.53,0002.75
2021-10-19 14:06:00,,0819.4,5.00,0.00,27.9,27.0,00.0,37.0,29.7,12.7,0000.0,0018.83,0004.58,0002.77
2021-10-19 14:07:00,,0819.4,5.00,0.00,27.9,27.0,00.0,37.0,29.7,12.9,0000.0,0017.65,0004.66,0002.78
2021-10-19 14:08:00,,0819.4,5.00,0.00,27.9,27.0,00.0,37.0,29.7,12.8,0000.0,0016.71,0004.66,0002.78
2021-10-19 14:09:00,,0819.4,5.00,0.00,27.9,27.0,00.0,37.0,29.7,12.8,0000.0,0015.93,0004.60,0002.80
2021-10-19 14:10:00,,0819.4,4.99,0.00,27.9,27.0,00.0,37.0,29.7,12.9,0000.0,0015.91,0004.60,0002.82
2021-10-19 14:11:00,,0819.5,5.00,0.00,27.9,27.0,00.0,37.0,29.7,12.7,0000.0,0015.92,0004.63,0002.81
2021-10-19 14:12:00,,0819.5,5.01,0.00,27.9,27.0,00.0,37.0,29.8,12.7,0000.0,0016.11,0004.68,0002.83
2021-10-19 14:13:00,,0819.5,5.00,0.00,27.9,26.9,00.0,37.0,29.7,13.0,0000.0,0016.35,0004.63,0002.81
2021-10-19 14:14:00,,0819.5,4.98,0.00,27.9,26.9,00.0,37.0,29.7,12.9,0000.0,0016.49,0004.61,0002.82
2021-10-19 14:15:00,,0819.5,5.01,0.00,27.9,26.9,00.0,37.0,29.7,12.8,0000.0,0016.45,0004.63,0002.83
2021-10-19 14:16:00,,0819.5,5.00,0.00,27.9,26.9,00.0,37.0,29.7,12.8,0000.0,0016.29,0004.59,0002.83
2021-10-19 14:17:00,,0819.6,4.99,0.00,27.9,26.9,00.0,37.0,29.7,12.8,0000.0,0014.82,0004.55,0002.82
2021-10-19 14:18:00,,0819.5,5.00,0.00,27.8,26.9,00.0,37.0,29.6,12.7,0000.0,0014.51,0004.50,0002.82
2021-10-19 14:19:00,,0819.5,5.00,0.00,27.8,26.8,00.0,37.0,29.6,12.6,0000.0,0014.90,0004.52,0002.79
2021-10-19 14:20:00,,0819.5,5.00,0.00,27.8,26.9,00.0,37.0,29.6,12.9,0000.0,0015.77,0004.59,0002.77
2021-10-19 14:21:00,,0819.5,5.00,0.00,27.8,26.9,00.0,37.0,29.6,13.0,0000.0,0015.04,0004.59,0002.76
2021-10-19 14:22:00,,0819.5,5.00,0.00,27.8,26.9,00.0,37.0,29.6,13.1,0000.0,0014.95,0004.57,0002.75
2021-10-19 14:23:00,,0819.5,5.01,0.00,27.8,26.9,00.0,37.0,29.6,12.9,0000.0,0015.19,0004.52,0002.73
2021-10-19 14:24:00,,0819.6,5.01,0.00,27.8,26.9,00.0,36.9,29.6,12.7,0000.0,0014.81,0004.49,0002.74
2021-10-19 14:25:00,,0819.6,4.99,0.00,27.8,26.8,00.0,36.9,29.6,13.0,0000.0,0014.83,0004.52,0002.73
2021-10-19 14:26:00,,0819.6,4.99,0.00,27.8,26.8,00.0,36.9,29.6,12.8,0000.0,0015.33,0004.56,0002.76
2021-10-19 14:27:00,,0819.7,5.00,0.00,27.8,26.8,00.0,36.9,29.5,12.9,0000.0,0014.74,0004.53,0002.78
2021-10-19 14:28:00,,0819.7,5.01,0.00,27.7,26.8,00.0,36.9,29.5,12.7,0000.0,0015.15,0004.56,0002.80
2021-10-19 14:29:00,,0819.7,4.99,0.00,27.7,26.8,00.0,36.9,29.5,12.7,0000.0,0015.02,0004.53,0002.82
2021-10-19 14:30:00,,0819.7,5.00,0.00,27.7,26.8,00.0,36.9,29.5,12.7,0000.0,0015.34,0004.50,0002.86
2021-10-19 14:31:00,,0819.7,5.00,0.00,27.7,26.8,00.0,36.9,29.4,12.8,0000.0,0015.45,0004.53,0002.89
2021-10-19 14:32:00,,0819.7,5.01,0.00,27.7,26.8,00.0,36.9,29.4,12.7,0000.0,0016.36,0004.63,0002.92
2021-10-19 14:33:00,,0819.7,5.00,0.00,27.7,26.8,00.0,36.9,29.4,12.7,0000.0,0016.38,0004.67,0002.97
2021-10-19 14:34:00,,0819.7,4.99,0.00,27.7,26.8,00.0,36.8,29.4,12.8,0000.0,0016.09,0004.68,0003.01
2021-10-19 14:35:00,,0819.7,5.00,0.00,27.7,26.8,00.0,36.8,29.5,12.8,0000.0,0015.56,0004.75,0003.05
2021-10-19 14:36:00,,0819.7,5.01,0.00,27.7,26.8,00.0,36.8,29.5,12.8,0000.0,0014.87,0004.74,0003.08
2021-10-19 14:37:00,,0819.7,5.00,0.00,27.7,26.8,00.0,36.8,29.4,12.7,0000.0,0014.43,0004.79,0003.12
2021-10-19 14:38:00,,0819.7,4.98,0.00,27.7,26.8,00.0,36.8,29.4,12.6,0000.0,0015.24,0004.91,0003.16
2021-10-19 14:39:00,,0819.6,5.00,0.00,27.6,26.7,00.0,36.8,29.4,12.7,0000.0,0015.39,0005.00,0003.20
2021-10-19 14:40:00,,0819.6,5.00,0.00,27.6,26.8,00.0,36.8,29.4,12.7,0000.0,0015.86,0005.05,0003.24
2021-10-19 14:41:00,,0819.6,5.00,0.00,27.7,26.8,00.0,36.8,29.4,12.6,0000.0,0015.47,0005.10,0003.23
2021-10-19 14:42:00,,0819.6,5.00,0.00,27.6,26.8,00.0,36.8,29.4,12.9,0000.0,0014.72,0005.10,0003.25
2021-10-19 14:43:00,,0819.6,4.99,0.00,27.6,26.8,00.0,36.8,29.4,13.0,0000.0,0013.95,0005.05,0003.28
2021-10-19 14:44:00,,0819.7,5.00,0.00,27.7,26.8,00.0,36.8,29.4,13.0,0000.0,0013.92,0005.03,0003.30
2021-10-19 14:45:00,,0819.7,5.01,0.00,27.7,26.8,00.0,36.8,29.5,13.0,0000.0,0014.51,0005.01,0003.31
2021-10-19 14:46:00,,0819.7,4.99,0.00,27.7,26.9,00.0,36.8,29.5,13.0,0000.0,0015.21,0004.99,0003.32
2021-10-19 14:47:00,,0819.7,5.00,0.00,27.7,26.9,00.0,36.8,29.5,12.8,0000.0,0015.48,0005.04,0003.33
2021-10-19 14:48:00,,0819.7,5.00,0.00,27.7,26.9,00.0,36.8,29.5,12.8,0000.0,0015.33,0005.00,0003.31
2021-10-19 14:49:00,,0819.7,5.01,0.00,27.7,27.0,00.0,36.8,29.6,12.9,0000.0,0014.67,0004.93,0003.30
2021-10-19 14:50:00,,0819.7,5.00,0.00,27.8,27.0,00.0,36.8,29.6,13.1,0000.0,0014.00,0004.83,0003.28
2021-10-19 14:51:00,,0819.7,5.00,0.00,27.8,27.0,00.0,36.8,29.6,14.5,0000.0,0013.68,0004.80,0003.25
2021-10-19 14:52:00,,0819.8,5.00,0.00,27.8,27.0,00.0,36.8,29.6,14.6,0000.0,0014.32,0004.79,0003.25
2021-10-19 14:53:00,,0819.8,5.00,0.00,27.8,27.1,00.0,36.8,29.6,14.7,0000.0,0014.52,0004.79,0003.23
2021-10-19 14:54:00,,0819.8,4.99,0.00,27.8,27.1,00.0,36.9,29.7,14.7,0000.0,0014.33,0004.76,0003.20
2021-10-19 14:55:00,,0819.9,5.00,0.00,27.8,27.1,00.0,36.9,29.7,14.8,0000.0,0015.53,0004.78,0003.15
2021-10-19 14:56:00,,0819.9,5.00,0.00,27.9,27.1,00.0,36.9,29.7,14.2,0000.0,0015.08,0004.82,0003.12
2021-10-19 14:57:00,,0819.9,5.00,0.00,27.9,27.1,00.0,36.9,29.7,14.2,0000.0,0014.42,0004.87,0003.07
2021-10-19 14:58:00,,0819.9,5.00,0.00,27.9,27.1,00.0,36.9,29.8,14.2,0000.0,0014.34,0004.85,0003.04
2021-10-19 14:59:00,,0820.0,5.00,0.00,27.9,27.2,00.0,36.9,29.8,14.0,0000.0,0014.29,0004.82,0003.02
